Weather History for Highgate, VT

Change the Weather History Date:

Tuesday, May 14, 2013

  Actual Average (KPBG) Record (KPBG)
Temperature  
Mean Temperature 46 °F 56 °F  
Max Temperature 59 °F 67 °F 84 °F (1961)
Min Temperature 34 °F 44 °F 31 °F (1950)
Degree Days  
Heating Degree Days 18    
Cooling Degree Days 0 0  
Month to date cooling degree days 0  
Year to date cooling degree days 0  
Moisture  
Dew Point 27 °F    
Average Humidity 54    
Maximum Humidity 89    
Minimum Humidity 20    
Precipitation  
Precipitation 0.00 in - 0.95 in (1964)
Month to date precipitation  
Year to date precipitation  
Sea Level Pressure  
Sea Level Pressure 30.05 in    
Wind  
Wind Speed 2 mph (NNW)    
Max Wind Speed 10 mph    
Max Gust Speed 16 mph    
Visibility 10 miles    
Events      
T = Trace of Precipitation, MM = Missing Value Source: NWS Daily Summary

Daily Weather History Graph

Daily Weather History Graph

Search for Another Location

Airport:

Trip Planner

Search our weather history database for the weather conditions in past years. The results will help you decide how hot, cold, wet, or windy it might be!

Date:

Astronomy

May. 14, 2013 Rise Set
Actual Time 5:24 AM EDT 8:13 PM EDT
Civil Twilight 4:50 AM EDT 8:47 PM EDT
Nautical Twilight 4:07 AM EDT 9:31 PM EDT
Astronomical Twilight 3:16 AM EDT 10:22 PM EDT
Moon 9:01 AM EDT (5/14) 11:57 PM EDT (5/14)
Length of Visible Light 15h 57m
Length of Day
14h 49m
Waxing Crescent, 19% of the Moon is Illuminated
May 14
Waxing Crescent
May 18
First Quarter
May 25
Full
May 31
Last Quarter
Jun 8
New

Hourly Weather History & Observations

Time (EDT) Temp. Windchill Dew Point Humidity Pressure Visibility Wind Dir Wind Speed Gust Speed Precip Events Conditions
12:15 AM 36.5 °F - 33.3 °F 88% 30.05 in 10.0 mi Calm Calm - N/A   Clear
12:35 AM 36.7 °F 34.1 °F 33.8 °F 89% 30.05 in 10.0 mi East 3.5 mph - N/A   Scattered Clouds
12:55 AM 36.7 °F - 33.8 °F 89% 30.05 in 10.0 mi Calm Calm - N/A   Scattered Clouds
1:15 AM 36.7 °F 34.1 °F 32.0 °F 83% 30.05 in 10.0 mi ENE 3.5 mph - N/A   Clear
1:35 AM 36.7 °F - 31.8 °F 83% 30.04 in 10.0 mi Calm Calm - N/A   Clear
1:55 AM 36.7 °F - 31.6 °F 82% 30.05 in 10.0 mi Calm Calm - N/A   Scattered Clouds
2:15 AM 36.5 °F - 32.0 °F 84% 30.05 in 10.0 mi Calm Calm - N/A   Mostly Cloudy
2:35 AM 36.7 °F - 32.0 °F 83% 30.05 in 10.0 mi Calm Calm - N/A   Overcast
2:55 AM 36.7 °F - 32.0 °F 83% 30.05 in 10.0 mi Calm Calm - N/A   Overcast
3:15 AM 36.7 °F - 32.2 °F 84% 30.05 in 10.0 mi Calm Calm - N/A   Overcast
3:35 AM 36.7 °F - 32.2 °F 84% 30.05 in 10.0 mi Calm Calm - N/A   Overcast
3:55 AM 36.3 °F - 31.8 °F 84% 30.05 in 10.0 mi Calm Calm - N/A   Mostly Cloudy
4:15 AM 34.7 °F - 31.1 °F 87% 30.06 in 10.0 mi Calm Calm - N/A   Mostly Cloudy
4:35 AM 34.2 °F - 30.6 °F 87% 30.06 in 10.0 mi Calm Calm - N/A   Mostly Cloudy
4:55 AM 34.2 °F - 30.7 °F 87% 30.07 in 10.0 mi Calm Calm - N/A   Mostly Cloudy
5:15 AM 34.2 °F - 30.6 °F 87% 30.07 in 10.0 mi Calm Calm - N/A   Overcast
5:35 AM 34.5 °F - 30.6 °F 85% 30.07 in 10.0 mi Calm Calm - N/A   Overcast
5:55 AM 36.3 °F - 32.5 °F 86% 30.08 in 10.0 mi Calm Calm - N/A   Overcast
6:15 AM 36.7 °F - 32.9 °F 86% 30.08 in 10.0 mi Calm Calm - N/A   Overcast
6:35 AM 36.9 °F - 33.3 °F 87% 30.09 in 10.0 mi Calm Calm - N/A   Overcast
6:55 AM 39.2 °F - 35.1 °F 85% 30.09 in 10.0 mi Calm Calm - N/A   Overcast
7:15 AM 40.1 °F - 33.3 °F 77% 30.09 in 10.0 mi Calm Calm - N/A   Overcast
7:35 AM 41.5 °F - 32.0 °F 69% 30.10 in 10.0 mi Calm Calm - N/A   Overcast
7:55 AM 41.9 °F - 30.2 °F 63% 30.10 in 10.0 mi Calm Calm - N/A   Overcast
8:15 AM 44.2 °F - 29.7 °F 57% 30.10 in 10.0 mi Calm Calm - N/A   Mostly Cloudy
8:35 AM 46.8 °F - 28.0 °F 48% 30.10 in 10.0 mi Calm Calm - N/A   Scattered Clouds
8:55 AM 49.3 °F - 29.3 °F 46% 30.10 in 10.0 mi Calm Calm - N/A   Scattered Clouds
9:15 AM 49.3 °F - 27.7 °F 43% 30.10 in 10.0 mi WNW 3.5 mph - N/A   Clear
9:35 AM 49.3 °F - 26.1 °F 40% 30.09 in 10.0 mi NNW 3.5 mph - N/A   Clear
9:55 AM 49.3 °F - 23.5 °F 36% 30.09 in 10.0 mi North 5.8 mph - N/A   Clear
10:15 AM 51.8 °F - 25.3 °F 36% 30.08 in 10.0 mi NW 3.5 mph - N/A   Clear
10:35 AM 51.8 °F - 23.5 °F 33% 30.08 in 10.0 mi North 6.9 mph - N/A   Clear
11:15 AM 53.1 °F - 24.6 °F 33% 30.07 in 10.0 mi Calm Calm - N/A   Clear
11:35 AM 54.5 °F - 24.8 °F 32% 30.07 in 10.0 mi NNW 3.5 mph - N/A   Clear
11:55 AM 54.5 °F - 24.8 °F 32% 30.07 in 10.0 mi NNW 5.8 mph - N/A   Clear
12:15 PM 54.5 °F - 23.7 °F 30% 30.06 in 10.0 mi North 9.2 mph - N/A   Scattered Clouds
12:35 PM 54.5 °F - 21.2 °F 27% 30.06 in 10.0 mi North 6.9 mph - N/A   Scattered Clouds
12:55 PM 55.2 °F - 20.7 °F 26% 30.06 in 10.0 mi North 4.6 mph - N/A   Clear
1:15 PM 54.7 °F - 19.9 °F 26% 30.06 in 10.0 mi NNW 5.8 mph - N/A   Scattered Clouds
1:35 PM 56.8 °F - 21.4 °F 25% 30.05 in 10.0 mi North 5.8 mph - N/A   Scattered Clouds
1:55 PM 54.5 °F - 20.5 °F 27% 30.05 in 10.0 mi NNE 6.9 mph - N/A   Scattered Clouds
2:35 PM 57.4 °F - 20.5 °F 24% 30.04 in 10.0 mi NNW 6.9 mph - N/A   Scattered Clouds
2:55 PM 59.4 °F - 19.9 °F 22% 30.03 in 10.0 mi North 10.4 mph 16.1 mph N/A   Scattered Clouds
3:15 PM 59.4 °F - 20.7 °F 22% 30.03 in 10.0 mi North 8.1 mph - N/A   Scattered Clouds
3:35 PM 58.3 °F - 19.0 °F 22% 30.03 in 10.0 mi West 4.6 mph - N/A   Clear
3:55 PM 59.4 °F - 19.2 °F 21% 30.02 in 10.0 mi North 8.1 mph - N/A   Clear
4:15 PM 58.1 °F - 18.1 °F 21% 30.01 in 10.0 mi NW 3.5 mph - N/A   Clear
4:35 PM 58.5 °F - 18.7 °F 21% 30.01 in 10.0 mi Calm Calm - N/A   Clear
4:55 PM 59.0 °F - 17.1 °F 20% 30.00 in 10.0 mi West 6.9 mph - N/A   Clear
5:35 PM 59.4 °F - 20.8 °F 23% 30.00 in 10.0 mi WNW 3.5 mph - N/A   Mostly Cloudy
5:55 PM 59.4 °F - 21.7 °F 23% 30.00 in 10.0 mi NNW 5.8 mph - N/A   Scattered Clouds
6:15 PM 57.7 °F - 20.3 °F 23% 29.99 in 10.0 mi WNW 3.5 mph - N/A   Clear
6:35 PM 56.8 °F - 20.1 °F 24% 29.99 in 10.0 mi NNW 3.5 mph - N/A   Clear
6:55 PM 56.8 °F - 20.5 °F 24% 29.99 in 10.0 mi WNW 3.5 mph - N/A   Clear
7:15 PM 56.8 °F - 20.8 °F 25% 29.98 in 10.0 mi NNW 3.5 mph - N/A   Clear
7:35 PM 54.5 °F - 20.7 °F 27% 29.99 in 10.0 mi West 3.5 mph - N/A   Clear
8:15 PM 52.5 °F - 22.1 °F 31% 30.00 in 10.0 mi Calm Calm - N/A   Clear
8:35 PM 49.3 °F - 25.2 °F 39% 30.00 in 10.0 mi Calm Calm - N/A   Clear
8:55 PM 47.1 °F - 27.7 °F 47% 30.00 in 10.0 mi Calm Calm - N/A   Clear
9:15 PM 43.3 °F - 30.2 °F 60% 30.00 in 10.0 mi Calm Calm - N/A   Clear
9:35 PM 42.3 °F - 28.6 °F 58% 30.01 in 10.0 mi Calm Calm - N/A   Clear
9:55 PM 41.5 °F - 30.9 °F 66% 30.01 in 10.0 mi Calm Calm - N/A   Clear
10:15 PM 39.4 °F - 29.8 °F 69% 30.02 in 10.0 mi Calm Calm - N/A   Clear
10:35 PM 39.9 °F - 31.1 °F 71% 30.02 in 10.0 mi Calm Calm - N/A   Clear
10:55 PM 39.2 °F - 31.3 °F 73% 30.01 in 10.0 mi Calm Calm - N/A   Clear
11:15 PM 36.7 °F - 30.0 °F 77% 30.01 in 10.0 mi Calm Calm - N/A   Clear
11:35 PM 37.6 °F - 31.5 °F 79% 30.01 in 10.0 mi Calm Calm - N/A   Clear